| time (UTC) | temp F | wind direction | speed knots | gust knots | rain 1hr in | rain 24hr in | rain mn in | humidity % | barometer mb |
| 20260504033509 | 51 | 176 | 1.7 | 1.7 | 0.00 | 0.00 | 0.00 | 49 | 1012.8 |
| 20260504033007 | 51 | 135 | 0.0 | 0.9 | 0.00 | 0.00 | 0.00 | 49 | 1013.1 |
| 20260504032503 | 51 | 131 | 0.0 | 0.9 | 0.00 | 0.00 | 0.00 | 49 | 1013.0 |
| 20260504032000 | 51 | 142 | 0.9 | 1.7 | 0.00 | 0.00 | 0.00 | 48 | 1013.2 |
| 20260504031456 | 51 | 131 | 0.0 | 0.9 | 0.00 | 0.00 | 0.00 | 48 | 1012.8 |
| 20260504030953 | 52 | 135 | 0.0 | 0.9 | 0.00 | 0.00 | 0.00 | 47 | 1012.9 |
| 20260504030451 | 52 | 131 | 0.9 | 0.9 | 0.00 | 0.00 | 0.00 | 47 | 1013.1 |
| 20260504025946 | 52 | 131 | 0.0 | 0.9 | 0.00 | 0.00 | 0.00 | 46 | 1012.9 |
| 20260504025443 | 52 | 138 | 0.9 | 0.9 | 0.00 | 0.00 | 0.00 | 46 | 1012.7 |
| 20260504024940 | 53 | 290 | 1.7 | 1.7 | 0.00 | 0.00 | 0.00 | 46 | 1013.0 |
| 20260504024437 | 53 | 117 | 0.0 | 0.0 | 0.00 | 0.00 | 0.00 | 45 | 1013.0 |
| 20260504023934 | 53 | 131 | 0.9 | 0.9 | 0.00 | 0.00 | 0.00 | 45 | 1012.9 |
| 20260504023431 | 53 | 159 | 1.7 | 1.7 | 0.00 | 0.00 | 0.00 | 44 | 1012.9 |
| 20260504022926 | 53 | 159 | 0.9 | 0.9 | 0.00 | 0.00 | 0.00 | 44 | 1012.9 |
| 20260504022423 | 53 | 260 | 1.7 | 1.7 | 0.00 | 0.00 | 0.00 | 44 | 1013.0 |
| 20260504021920 | 53 | 167 | 0.9 | 0.9 | 0.00 | 0.00 | 0.00 | 44 | 1012.9 |
| 20260504021417 | 53 | 290 | 1.7 | 1.7 | 0.00 | 0.00 | 0.00 | 44 | 1012.9 |
| 20260504020914 | 53 | 230 | 1.7 | 1.7 | 0.00 | 0.00 | 0.00 | 43 | 1013.0 |
| 20260504020411 | 53 | 219 | 0.9 | 0.9 | 0.00 | 0.00 | 0.00 | 43 | 1012.9 |
| 20260504015907 | 53 | 198 | 0.9 | 1.7 | 0.00 | 0.00 | 0.00 | 43 | 1013.0 |
| 20260504015404 | 53 | 131 | 0.0 | 0.9 | 0.00 | 0.00 | 0.00 | 43 | 1012.9 |
| 20260504014900 | 53 | 131 | 0.9 | 0.9 | 0.00 | 0.00 | 0.00 | 43 | 1012.9 |
| 20260504014355 | 54 | 135 | 0.9 | 0.9 | 0.00 | 0.00 | 0.00 | 42 | 1013.0 |
| 20260504013853 | 54 | 135 | 0.0 | 0.9 | 0.00 | 0.00 | 0.00 | 42 | 1012.7 |
| 20260504013351 | 54 | 129 | 0.0 | 0.0 | 0.00 | 0.00 | 0.00 | 41 | 1012.8 |
| 20260504012847 | 54 | 129 | 0.0 | 0.9 | 0.00 | 0.00 | 0.00 | 41 | 1012.6 |
| 20260504012345 | 54 | 127 | 0.0 | 0.9 | 0.00 | 0.00 | 0.00 | 41 | 1012.7 |
| 20260504011843 | 54 | 135 | 0.9 | 0.9 | 0.00 | 0.00 | 0.00 | 40 | 1012.4 |
| 20260504011339 | 54 | 127 | 0.0 | 0.0 | 0.00 | 0.00 | 0.00 | 40 | 1012.5 |
| 20260504010835 | 55 | 131 | 0.0 | 0.9 | 0.00 | 0.00 | 0.00 | 39 | 1012.4 |
| 20260504010330 | 55 | 135 | 0.9 | 0.9 | 0.00 | 0.00 | 0.00 | 39 | 1012.3 |
| 20260504005827 | 55 | 131 | 0.0 | 0.9 | 0.00 | 0.00 | 0.00 | 39 | 1012.6 |
| 20260504005324 | 55 | 131 | 0.0 | 0.9 | 0.00 | 0.00 | 0.00 | 39 | 1012.1 |
| 20260504004822 | 55 | 131 | 0.0 | 0.0 | 0.00 | 0.00 | 0.00 | 38 | 1012.2 |
| 20260504004319 | 55 | 131 | 0.0 | 0.9 | 0.00 | 0.00 | 0.00 | 38 | 1012.0 |
| 20260504003815 | 56 | 130 | 0.0 | 0.0 | 0.00 | 0.00 | 0.00 | 38 | 1012.1 |
| 20260504003313 | 56 | 130 | 0.0 | 0.0 | 0.00 | 0.00 | 0.00 | 38 | 1012.2 |
| 20260504002809 | 56 | 130 | 0.0 | 0.9 | 0.00 | 0.00 | 0.00 | 37 | 1012.0 |
| 20260504002306 | 56 | 125 | 0.9 | 0.9 | 0.00 | 0.00 | 0.00 | 38 | 1011.8 |
| 20260504001804 | 56 | 125 | 0.9 | 0.9 | 0.00 | 0.00 | 0.00 | 38 | 1011.8 |
| 20260504001301 | 56 | 123 | 0.9 | 0.9 | 0.00 | 0.00 | 0.00 | 37 | 1011.8 |
| 20260504000757 | 56 | 118 | 0.0 | 0.9 | 0.00 | 0.00 | 0.00 | 37 | 1011.6 |
| 20260504000254 | 56 | 137 | 0.9 | 0.9 | 0.00 | 0.00 | 0.00 | 37 | 1011.6 |
| 20260503235752 | 57 | 54 | 0.9 | 0.9 | 0.00 | 0.00 | 0.00 | 37 | 1011.4 |
| 20260503235249 | 57 | 62 | 0.9 | 1.7 | 0.00 | 0.00 | 0.00 | 37 | 1011.8 |
| 20260503234747 | 57 | 39 | 0.9 | 0.9 | 0.00 | 0.00 | 0.00 | 37 | 1011.7 |
| 20260503234245 | 57 | 270 | 0.0 | 0.9 | 0.00 | 0.00 | 0.00 | 36 | 1011.4 |
| 20260503233742 | 57 | 270 | 1.7 | 1.7 | 0.00 | 0.00 | 0.00 | 36 | 1011.5 |
| 20260503233238 | 57 | 282 | 0.0 | 0.0 | 0.00 | 0.00 | 0.00 | 35 | 1011.3 |
| 20260503232735 | 57 | 115 | 0.0 | 0.9 | 0.00 | 0.00 | 0.00 | 35 | 1011.3 |
| 20260503232232 | 58 | 140 | 1.7 | 1.7 | 0.00 | 0.00 | 0.00 | 34 | 1011.3 |
| 20260503231730 | 57 | 82 | 2.6 | 2.6 | 0.00 | 0.00 | 0.00 | 35 | 1011.1 |
| 20260503231226 | 58 | 96 | 0.9 | 0.9 | 0.00 | 0.00 | 0.00 | 35 | 1011.3 |
| 20260503230722 | 58 | 72 | 0.0 | 0.9 | 0.00 | 0.00 | 0.00 | 35 | 1011.0 |
| 20260503230220 | 58 | 66 | 1.7 | 2.6 | 0.00 | 0.00 | 0.00 | 34 | 1011.2 |
| 20260503225718 | 58 | 74 | 1.7 | 1.7 | 0.00 | 0.00 | 0.00 | 34 | 1010.9 |
| 20260503225218 | 58 | 71 | 0.9 | 0.9 | 0.00 | 0.00 | 0.00 | 34 | 1011.1 |
| 20260503224715 | 58 | 286 | 0.9 | 1.7 | 0.00 | 0.00 | 0.00 | 33 | 1010.9 |
| 20260503224213 | 59 | 127 | 0.0 | 0.9 | 0.00 | 0.00 | 0.00 | 34 | 1011.0 |
| 20260503223710 | 59 | 121 | 0.0 | 0.9 | 0.00 | 0.00 | 0.00 | 33 | 1011.0 |
| 20260503223207 | 59 | 290 | 0.9 | 0.9 | 0.00 | 0.00 | 0.00 | 32 | 1011.1 |
| 20260503222704 | 59 | 18 | 0.0 | 0.9 | 0.00 | 0.00 | 0.00 | 32 | 1010.8 |
| 20260503222202 | 59 | 58 | 0.9 | 0.9 | 0.00 | 0.00 | 0.00 | 31 | 1010.9 |
| 20260503221700 | 59 | 288 | 0.9 | 2.6 | 0.00 | 0.00 | 0.00 | 31 | 1011.1 |
| 20260503221157 | 59 | 65 | 0.9 | 0.9 | 0.00 | 0.00 | 0.00 | 32 | 1010.7 |
| 20260503220654 | 60 | 298 | 2.6 | 4.3 | 0.00 | 0.00 | 0.00 | 32 | 1010.7 |
| 20260503220150 | 59 | 71 | 0.9 | 0.9 | 0.00 | 0.00 | 0.00 | 32 | 1010.6 |
| 20260503215647 | 59 | 295 | 2.6 | 2.6 | 0.00 | 0.00 | 0.00 | 31 | 1010.9 |
| 20260503215144 | 59 | 94 | 0.0 | 0.9 | 0.00 | 0.00 | 0.00 | 33 | 1011.1 |
| 20260503214643 | 59 | 317 | 0.9 | 0.9 | 0.00 | 0.00 | 0.00 | 31 | 1010.9 |
| 20260503214138 | 59 | 344 | 1.7 | 4.3 | 0.00 | 0.00 | 0.00 | 32 | 1010.9 |
| 20260503213632 | 59 | 50 | 1.7 | 1.7 | 0.00 | 0.00 | 0.00 | 32 | 1010.9 |
| 20260503213128 | 59 | 63 | 0.9 | 0.9 | 0.00 | 0.00 | 0.00 | 32 | 1010.7 |
| 20260503212625 | 59 | 18 | 1.7 | 1.7 | 0.00 | 0.00 | 0.00 | 32 | 1011.0 |
| 20260503212123 | 60 | 349 | 1.7 | 1.7 | 0.00 | 0.00 | 0.00 | 30 | 1010.9 |
| 20260503211620 | 60 | 334 | 1.7 | 1.7 | 0.00 | 0.00 | 0.00 | 31 | 1010.7 |
| 20260503211116 | 60 | 322 | 1.7 | 1.7 | 0.00 | 0.00 | 0.00 | 32 | 1010.7 |
| 20260503210612 | 60 | 111 | 0.9 | 0.9 | 0.00 | 0.00 | 0.00 | 33 | 1010.7 |
| 20260503210109 | 60 | 70 | 0.9 | 1.7 | 0.00 | 0.00 | 0.00 | 31 | 1010.6 |
| 20260503205605 | 60 | 273 | 1.7 | 1.7 | 0.00 | 0.00 | 0.00 | 31 | 1010.6 |
| 20260503205101 | 60 | 36 | 0.0 | 0.9 | 0.00 | 0.00 | 0.00 | 32 | 1010.6 |
| 20260503204558 | 60 | 310 | 1.7 | 1.7 | 0.00 | 0.00 | 0.00 | 30 | 1010.9 |
| 20260503204056 | 60 | 105 | 0.0 | 0.0 | 0.00 | 0.00 | 0.00 | 33 | 1010.8 |
| 20260503203552 | 60 | 317 | 1.7 | 1.7 | 0.00 | 0.00 | 0.00 | 32 | 1010.7 |
| 20260503203050 | 59 | 288 | 1.7 | 1.7 | 0.00 | 0.00 | 0.00 | 33 | 1010.6 |
| 20260503202547 | 59 | 24 | 1.7 | 1.7 | 0.00 | 0.00 | 0.00 | 31 | 1011.1 |
| 20260503202045 | 60 | 312 | 2.6 | 4.3 | 0.00 | 0.00 | 0.00 | 33 | 1010.9 |
| 20260503201543 | 60 | 50 | 0.9 | 0.9 | 0.00 | 0.00 | 0.00 | 32 | 1010.9 |
| 20260503201040 | 59 | 274 | 1.7 | 1.7 | 0.00 | 0.00 | 0.00 | 33 | 1011.1 |
| 20260503200536 | 59 | 46 | 1.7 | 1.7 | 0.00 | 0.00 | 0.00 | 33 | 1011.1 |
| 20260503200033 | 59 | 201 | 1.7 | 1.7 | 0.00 | 0.00 | 0.00 | 36 | 1011.2 |
| 20260503195530 | 59 | 99 | 0.9 | 0.9 | 0.00 | 0.00 | 0.00 | 36 | 1011.1 |
| 20260503195027 | 59 | 243 | 2.6 | 4.3 | 0.00 | 0.00 | 0.00 | 33 | 1010.9 |
| 20260503194525 | 59 | 56 | 1.7 | 1.7 | 0.00 | 0.00 | 0.00 | 34 | 1011.1 |
| 20260503194024 | 59 | 299 | 3.5 | 4.3 | 0.00 | 0.00 | 0.00 | 33 | 1011.3 |
| 20260503193521 | 59 | 284 | 3.5 | 5.2 | 0.00 | 0.00 | 0.00 | 33 | 1011.0 |
| 20260503193016 | 59 | 80 | 0.0 | 0.9 | 0.00 | 0.00 | 0.00 | 34 | 1011.4 |
| 20260503192512 | 58 | 82 | 0.0 | 0.9 | 0.00 | 0.00 | 0.00 | 34 | 1011.5 |
| 20260503192008 | 58 | 277 | 2.6 | 4.3 | 0.00 | 0.00 | 0.00 | 33 | 1011.3 |
| 20260503191506 | 58 | 323 | 1.7 | 2.6 | 0.00 | 0.00 | 0.00 | 33 | 1011.3 |
| 20260503191002 | 58 | 55 | 0.9 | 1.7 | 0.00 | 0.00 | 0.00 | 35 | 1011.5 |
| 20260503190459 | 57 | 110 | 2.6 | 2.6 | 0.00 | 0.00 | 0.00 | 35 | 1011.4 |
| 20260503185956 | 57 | 311 | 2.6 | 2.6 | 0.00 | 0.00 | 0.00 | 34 | 1011.4 |
| 20260503185452 | 57 | 71 | 1.7 | 1.7 | 0.00 | 0.00 | 0.00 | 36 | 1011.6 |
| 20260503184952 | 57 | 78 | 0.9 | 2.6 | 0.00 | 0.00 | 0.00 | 35 | 1011.4 |
| 20260503184448 | 57 | 290 | 3.5 | 5.2 | 0.00 | 0.00 | 0.00 | 34 | 1011.8 |
| 20260503183945 | 57 | 155 | 2.6 | 2.6 | 0.00 | 0.00 | 0.00 | 37 | 1011.9 |
| 20260503183442 | 57 | 310 | 2.6 | 4.3 | 0.00 | 0.00 | 0.00 | 36 | 1011.7 |
| 20260503182938 | 58 | 50 | 1.7 | 1.7 | 0.00 | 0.00 | 0.00 | 36 | 1012.0 |
| 20260503182437 | 59 | 300 | 3.5 | 4.3 | 0.00 | 0.00 | 0.00 | 34 | 1011.6 |
| 20260503181935 | 57 | 71 | 0.0 | 0.9 | 0.00 | 0.00 | 0.00 | 36 | 1011.7 |
| 20260503181432 | 56 | 24 | 2.6 | 4.3 | 0.00 | 0.00 | 0.00 | 35 | 1011.7 |
| 20260503180927 | 56 | 352 | 0.9 | 1.7 | 0.00 | 0.00 | 0.00 | 38 | 1011.7 |
| 20260503180427 | 57 | 56 | 0.9 | 1.7 | 0.00 | 0.00 | 0.00 | 38 | 1011.8 |
| 20260503175923 | 58 | 54 | 0.9 | 0.9 | 0.00 | 0.00 | 0.00 | 36 | 1011.5 |
| 20260503175421 | 59 | 100 | 0.9 | 1.7 | 0.00 | 0.00 | 0.00 | 37 | 1011.8 |
| 20260503174916 | 58 | 312 | 2.6 | 2.6 | 0.00 | 0.00 | 0.00 | 37 | 1011.8 |
| 20260503174415 | 56 | 140 | 0.9 | 0.9 | 0.00 | 0.00 | 0.00 | 39 | 1011.9 |
| 20260503173914 | 55 | 293 | 0.9 | 1.7 | 0.00 | 0.00 | 0.00 | 38 | 1012.1 |
| 20260503173411 | 57 | 33 | 1.7 | 2.6 | 0.00 | 0.00 | 0.00 | 38 | 1012.1 |
| 20260503172908 | 55 | 84 | 0.9 | 1.7 | 0.00 | 0.00 | 0.00 | 41 | 1012.1 |
| 20260503172406 | 54 | 23 | 2.6 | 4.3 | 0.00 | 0.00 | 0.00 | 40 | 1012.1 |
| 20260503171901 | 54 | 284 | 2.6 | 4.3 | 0.00 | 0.00 | 0.00 | 40 | 1012.2 |
| 20260503171358 | 55 | 54 | 1.7 | 1.7 | 0.00 | 0.00 | 0.00 | 41 | 1012.4 |
| 20260503170856 | 55 | 308 | 1.7 | 1.7 | 0.00 | 0.00 | 0.00 | 41 | 1012.3 |
| 20260503170352 | 57 | 72 | 1.7 | 1.7 | 0.00 | 0.00 | 0.00 | 39 | 1012.4 |
| 20260503150744 | 50 | 320 | 1.7 | 1.7 | 0.00 | 0.00 | 0.00 | 46 | 1012.8 |
| 20260503150240 | 50 | 66 | 0.0 | 0.9 | 0.00 | 0.00 | 0.00 | 49 | 1012.9 |
| 20260503140205 | 51 | 68 | 0.9 | 1.7 | 0.00 | 0.00 | 0.00 | 49 | 1012.7 |
| 20260503131134 | 48 | 55 | 0.9 | 1.7 | 0.00 | 0.00 | 0.00 | 55 | 1012.7 |
| 20260503130632 | 48 | 62 | 0.0 | 0.9 | 0.00 | 0.00 | 0.00 | 56 | 1012.5 |
| 20260503130129 | 48 | 58 | 0.9 | 0.9 | 0.00 | 0.00 | 0.00 | 57 | 1012.8 |
| 20260503110522 | 43 | 71 | 0.0 | 0.9 | 0.00 | 0.00 | 0.00 | 65 | 1012.5 |
| 20260503090408 | 44 | 72 | 0.0 | 0.0 | 0.00 | 0.00 | 0.00 | 59 | 1011.2 |
| 20260503081335 | 45 | 66 | 0.0 | 0.9 | 0.00 | 0.00 | 0.00 | 59 | 1010.9 |
| 20260503080832 | 45 | 70 | 0.0 | 0.0 | 0.00 | 0.00 | 0.00 | 59 | 1010.9 |
| 20260503080329 | 45 | 56 | 0.0 | 0.0 | 0.00 | 0.00 | 0.00 | 59 | 1011.0 |
| 20260503072805 | 45 | 62 | 0.0 | 0.0 | 0.00 | 0.00 | 0.00 | 60 | 1010.8 |
| 20260503072305 | 45 | 62 | 0.0 | 0.0 | 0.00 | 0.00 | 0.00 | 61 | 1011.0 |
| 20260503071758 | 45 | 62 | 0.0 | 0.0 | 0.00 | 0.00 | 0.00 | 60 | 1011.0 |
| 20260503071255 | 45 | 62 | 0.0 | 0.9 | 0.00 | 0.00 | 0.00 | 60 | 1010.8 |
| 20260503070752 | 45 | 62 | 0.9 | 0.9 | 0.00 | 0.00 | 0.00 | 60 | 1010.9 |
| 20260503070250 | 45 | 62 | 0.0 | 0.0 | 0.00 | 0.00 | 0.00 | 60 | 1011.1 |
| 20260503060215 | 47 | 62 | 0.0 | 0.0 | 0.00 | 0.00 | 0.00 | 56 | 1010.8 |
| 20260503054702 | 47 | 62 | 0.0 | 0.0 | 0.00 | 0.00 | 0.00 | 57 | 1011.2 |
| 20260503054159 | 47 | 62 | 0.0 | 0.0 | 0.00 | 0.00 | 0.00 | 56 | 1011.0 |
| 20260503053657 | 47 | 62 | 0.0 | 0.0 | 0.00 | 0.00 | 0.00 | 57 | 1011.3 |
| 20260503053155 | 48 | 62 | 0.0 | 0.0 | 0.00 | 0.00 | 0.00 | 56 | 1011.2 |
| 20260503052651 | 48 | 62 | 0.0 | 0.0 | 0.00 | 0.00 | 0.00 | 54 | 1011.1 |
| 20260503052148 | 48 | 58 | 0.0 | 0.0 | 0.00 | 0.00 | 0.00 | 55 | 1011.3 |
| 20260503051643 | 48 | 58 | 0.0 | 0.9 | 0.00 | 0.00 | 0.00 | 54 | 1011.3 |
| 20260503051141 | 48 | 55 | 0.0 | 0.0 | 0.00 | 0.00 | 0.00 | 54 | 1011.3 |
| 20260503050637 | 48 | 66 | 0.0 | 0.0 | 0.00 | 0.00 | 0.00 | 55 | 1011.4 |
| 20260503050134 | 48 | 66 | 0.0 | 0.0 | 0.00 | 0.00 | 0.00 | 55 | 1011.5 |
| 20260503045632 | 48 | 66 | 0.0 | 0.0 | 0.00 | 0.00 | 0.00 | 56 | 1011.4 |
| 20260503045129 | 48 | 66 | 0.0 | 0.0 | 0.00 | 0.00 | 0.00 | 56 | 1011.6 |
| 20260503044625 | 48 | 66 | 0.0 | 0.0 | 0.00 | 0.00 | 0.00 | 55 | 1011.6 |
| 20260503044123 | 48 | 66 | 0.0 | 0.0 | 0.00 | 0.00 | 0.00 | 57 | 1011.5 |
| 20260503043619 | 48 | 66 | 0.0 | 0.9 | 0.00 | 0.00 | 0.00 | 57 | 1011.6 |
| 20260503043116 | 48 | 66 | 0.0 | 0.0 | 0.00 | 0.00 | 0.00 | 56 | 1011.5 |
| 20260503042613 | 48 | 66 | 0.0 | 0.0 | 0.00 | 0.00 | 0.00 | 56 | 1011.6 |
| 20260503042109 | 48 | 66 | 0.0 | 0.0 | 0.00 | 0.00 | 0.00 | 56 | 1011.9 |
| 20260503041605 | 48 | 66 | 0.0 | 0.0 | 0.00 | 0.00 | 0.00 | 55 | 1011.6 |
| 20260503041104 | 48 | 66 | 0.0 | 0.0 | 0.00 | 0.00 | 0.00 | 55 | 1011.7 |
| 20260503040600 | 48 | 66 | 0.0 | 0.0 | 0.00 | 0.00 | 0.00 | 55 | 1011.5 |
| 20260503040058 | 48 | 66 | 0.0 | 0.0 | 0.00 | 0.00 | 0.00 | 54 | 1011.8 |
| 20260503035554 | 48 | 66 | 0.9 | 0.9 | 0.00 | 0.00 | 0.00 | 54 | 1011.6 |
| 20260503035052 | 48 | 66 | 0.0 | 0.0 | 0.00 | 0.00 | 0.00 | 55 | 1011.7 |
| 20260503034549 | 49 | 66 | 0.0 | 0.0 | 0.00 | 0.00 | 0.00 | 54 | 1011.5 |
| 20260503034046 | 49 | 66 | 0.0 | 0.0 | 0.00 | 0.00 | 0.00 | 54 | 1011.6 |